VIR400M EGLL-OMDB

Flight info

Callsign VIR400M
Flight time 6h 47m
Altitude 37000
Route DET L6 DVR UL9 KONAN UL607 KOK DCT REMBA DCT LIRSU DCT KRH DCT UTABA DCT MOMUK DCT GEDSO DCT VEKEN DCT MSR DCT PINDO DCT PAXIS Y707 OBRAN L321 REXUM M872 LUBOS/N0491F390 M872 BDB Y214 RAPMA DCT KUVSO DCT KATIT DCT PEKEM M628 RIGIL G783 ELUDA/N0502F350 G783 ASPED Q308 KIPOK Q568 IMPED
Aircraft A35K/H-SDE2E3GHIJ3J4J5LM1ORWXY/LB1D1

Departure

Time 2026-04-20 05:41
Airport London Heathrow Airport (EGLL)

Arrival

Time 2026-04-20 12:29
Airport Dubai International Airport (OMDB)
Time Latitude Longitude Altitude Speed Heading
2026-04-20 05:14 51.46836 -0.45830 94 ft 0 kts
2026-04-20 05:33 51.46828 -0.45830 91 ft 4 kts
2026-04-20 05:33 51.46801 -0.45834 94 ft 4 kts
2026-04-20 05:33 51.46775 -0.45838 94 ft 4 kts 350°
2026-04-20 05:33 51.46755 -0.45824 93 ft 4 kts 314°
2026-04-20 05:34 51.46746 -0.45790 91 ft 4 kts 262°
2026-04-20 05:34 51.46748 -0.45757 93 ft 1 kts 269°
2026-04-20 05:34 51.46748 -0.45751 95 ft 0 kts 269°
2026-04-20 05:36 51.46748 -0.45779 94 ft 9 kts 271°
2026-04-20 05:36 51.46749 -0.45903 94 ft 13 kts 269°
2026-04-20 05:36 51.46748 -0.46057 94 ft 15 kts 269°
2026-04-20 05:36 51.46748 -0.46231 95 ft 16 kts 270°
2026-04-20 05:37 51.46748 -0.46425 95 ft 18 kts 270°
2026-04-20 05:37 51.46748 -0.46637 93 ft 20 kts 270°
2026-04-20 05:37 51.46747 -0.46860 95 ft 20 kts 269°
2026-04-20 05:37 51.46747 -0.47095 93 ft 22 kts 270°
2026-04-20 05:38 51.46747 -0.47329 95 ft 21 kts 270°
2026-04-20 05:38 51.46746 -0.47568 94 ft 22 kts 270°
2026-04-20 05:38 51.46744 -0.47823 92 ft 23 kts 269°
2026-04-20 05:38 51.46743 -0.48054 94 ft 19 kts 269°
2026-04-20 05:39 51.46742 -0.48217 93 ft 14 kts 272°
2026-04-20 05:39 51.46741 -0.48379 92 ft 15 kts 257°
2026-04-20 05:39 51.46669 -0.48470 94 ft 13 kts 185°
2026-04-20 05:39 51.46595 -0.48471 95 ft 10 kts 179°
2026-04-20 05:40 51.46514 -0.48466 96 ft 12 kts 167°
2026-04-20 05:40 51.46482 -0.48385 97 ft 9 kts 102°
2026-04-20 05:40 51.46479 -0.48241 95 ft 31 kts 90°
2026-04-20 05:40 51.46481 -0.47497 89 ft 100 kts 90°
2026-04-20 05:41 51.46489 -0.46066 92 ft 155 kts 89°
2026-04-20 05:41 51.46512 -0.44276 621 ft 160 kts 88°
2026-04-20 05:41 51.46422 -0.42520 1272 ft 162 kts 103°
2026-04-20 05:41 51.45933 -0.40753 1546 ft 185 kts 118°
2026-04-20 05:42 51.45267 -0.38817 1766 ft 212 kts 117°
2026-04-20 05:42 51.44576 -0.36553 1993 ft 238 kts 111°
2026-04-20 05:42 51.43977 -0.33993 2580 ft 247 kts 108°
2026-04-20 05:42 51.43418 -0.31391 3438 ft 245 kts 108°
2026-04-20 05:43 51.42885 -0.28820 4229 ft 247 kts 105°
2026-04-20 05:43 51.42462 -0.26113 4882 ft 253 kts 101°
2026-04-20 05:43 51.42081 -0.23320 5529 ft 258 kts 101°
2026-04-20 05:43 51.41698 -0.20485 5906 ft 261 kts 101°
2026-04-20 05:44 51.41309 -0.17639 5999 ft 262 kts 101°
2026-04-20 05:44 51.40917 -0.14772 6004 ft 264 kts 101°
2026-04-20 05:44 51.40525 -0.11894 5999 ft 264 kts 101°
2026-04-20 05:44 51.40125 -0.09007 5999 ft 265 kts 101°
2026-04-20 05:45 51.39730 -0.06174 6000 ft 264 kts 101°
2026-04-20 05:45 51.39333 -0.03303 6002 ft 264 kts 101°
2026-04-20 05:45 51.38934 -0.00429 5999 ft 264 kts 101°
2026-04-20 05:45 51.38535 0.02446 5999 ft 264 kts 101°
2026-04-20 05:46 51.38131 0.05330 5999 ft 264 kts 99°
2026-04-20 05:46 51.37727 0.08227 6003 ft 267 kts 99°
2026-04-20 05:46 51.37325 0.11136 6000 ft 268 kts 99°
2026-04-20 05:46 51.36915 0.14050 6000 ft 268 kts 99°
2026-04-20 05:47 51.36510 0.16928 5999 ft 268 kts 99°
2026-04-20 05:47 51.36102 0.19844 6000 ft 268 kts 99°
2026-04-20 05:47 51.35693 0.22754 6002 ft 269 kts 100°
2026-04-20 05:47 51.35279 0.25661 6000 ft 268 kts 99°
2026-04-20 05:48 51.34867 0.28572 6000 ft 268 kts 99°
2026-04-20 05:48 51.34454 0.31481 6001 ft 268 kts 99°
2026-04-20 05:48 51.34039 0.34391 6000 ft 268 kts 100°
2026-04-20 05:48 51.33624 0.37299 5998 ft 268 kts 100°
2026-04-20 05:49 51.33208 0.40215 6000 ft 268 kts 100°
2026-04-20 05:49 51.32793 0.43125 5999 ft 268 kts 100°
2026-04-20 05:49 51.32378 0.46027 5998 ft 268 kts 100°
2026-04-20 05:49 51.31964 0.48943 6000 ft 268 kts 100°
2026-04-20 05:50 51.31552 0.51812 5999 ft 268 kts 100°
2026-04-20 05:50 51.31126 0.54728 5999 ft 268 kts 100°
2026-04-20 05:50 51.30704 0.57639 6001 ft 268 kts 100°
2026-04-20 05:50 51.30286 0.60551 6006 ft 268 kts 100°
2026-04-20 05:51 51.29826 0.63438 6260 ft 270 kts 103°
2026-04-20 05:51 51.29292 0.66349 6925 ft 273 kts 104°
2026-04-20 05:51 51.28734 0.69258 7722 ft 274 kts 104°
2026-04-20 05:51 51.28170 0.72185 8454 ft 277 kts 104°
2026-04-20 05:52 51.27603 0.75153 9137 ft 281 kts 104°
2026-04-20 05:52 51.27038 0.78161 9825 ft 285 kts 104°
2026-04-20 05:52 51.26475 0.81200 10452 ft 292 kts 104°
2026-04-20 05:52 51.25885 0.84412 10765 ft 311 kts 104°
2026-04-20 05:53 51.25259 0.87832 11041 ft 330 kts 104°
2026-04-20 05:53 51.24595 0.91452 11317 ft 348 kts 104°
2026-04-20 05:53 51.23894 0.95248 11596 ft 365 kts 104°
2026-04-20 05:53 51.23160 0.99203 11872 ft 380 kts 105°
2026-04-20 05:54 51.22402 1.03272 12283 ft 390 kts 105°
2026-04-20 05:54 51.21622 1.07449 12837 ft 395 kts 105°
2026-04-20 05:54 51.20828 1.11686 13401 ft 399 kts 105°
2026-04-20 05:54 51.20299 1.14505 13757 ft 402 kts 105°
2026-04-20 05:55 51.19227 1.20215 14487 ft 407 kts 105°
2026-04-20 05:55 51.18410 1.24552 15064 ft 411 kts 105°
2026-04-20 05:55 51.17850 1.27522 15434 ft 414 kts 105°
2026-04-20 05:55 51.16772 1.33384 16132 ft 419 kts 102°
2026-04-20 05:56 51.16390 1.36402 16472 ft 420 kts 96°
2026-04-20 05:56 51.16019 1.41048 17003 ft 422 kts 94°
2026-04-20 05:56 51.15740 1.45723 17492 ft 426 kts 93°
2026-04-20 05:56 51.15510 1.50447 17974 ft 430 kts 92°
2026-04-20 05:57 51.15297 1.55211 18477 ft 433 kts 92°
2026-04-20 05:57 51.15080 1.60025 18923 ft 437 kts 92°
2026-04-20 05:57 51.14856 1.64893 19326 ft 442 kts 92°
2026-04-20 05:57 51.14625 1.69744 19780 ft 446 kts 92°
2026-04-20 05:58 51.14383 1.74685 20230 ft 449 kts 92°
2026-04-20 05:58 51.14134 1.79675 20673 ft 453 kts 92°
2026-04-20 05:58 51.13879 1.84699 21110 ft 456 kts 92°
2026-04-20 05:58 51.13618 1.89766 21528 ft 460 kts 92°
2026-04-20 05:59 51.13353 1.94872 21925 ft 464 kts 92°
2026-04-20 05:59 51.13083 2.00022 22326 ft 468 kts 92°
2026-04-20 05:59 51.12817 2.05147 22732 ft 472 kts 92°
2026-04-20 05:59 51.12543 2.10380 23116 ft 476 kts 92°
2026-04-20 06:00 51.12261 2.15642 23511 ft 479 kts 92°
2026-04-20 06:00 51.11970 2.20957 23895 ft 483 kts 92°
2026-04-20 06:00 51.11677 2.26296 24293 ft 486 kts 92°
2026-04-20 06:00 51.11379 2.31672 24660 ft 489 kts 92°
2026-04-20 06:01 51.11076 2.37097 24988 ft 494 kts 92°
2026-04-20 06:01 51.10769 2.42571 25308 ft 498 kts 92°
2026-04-20 06:01 51.10460 2.48066 25668 ft 501 kts 92°
2026-04-20 06:01 51.10145 2.53628 26015 ft 505 kts 92°
2026-04-20 06:02 51.09825 2.59212 26354 ft 509 kts 92°
2026-04-20 06:02 51.09368 2.64749 26661 ft 515 kts 99°
2026-04-20 06:02 51.08538 2.70326 27001 ft 519 kts 102°
2026-04-20 06:02 51.07593 2.75911 27318 ft 524 kts 104°
2026-04-20 06:03 51.06590 2.81498 27630 ft 527 kts 104°
2026-04-20 06:03 51.05558 2.87101 27983 ft 530 kts 104°
2026-04-20 06:03 51.04510 2.92757 28261 ft 535 kts 104°
2026-04-20 06:03 51.03457 2.98435 28571 ft 538 kts 104°
2026-04-20 06:04 51.02394 3.04175 28876 ft 542 kts 104°
2026-04-20 06:04 51.01331 3.09927 29159 ft 545 kts 104°
2026-04-20 06:04 51.00259 3.15728 29449 ft 548 kts 104°
2026-04-20 06:04 50.99182 3.21544 29716 ft 552 kts 104°
2026-04-20 06:05 50.98094 3.27408 29969 ft 555 kts 104°
2026-04-20 06:05 50.97009 3.33238 30270 ft 557 kts 104°
2026-04-20 06:05 50.95911 3.39117 30745 ft 555 kts 104°
2026-04-20 06:05 50.94814 3.44964 31225 ft 553 kts 105°
2026-04-20 06:06 50.93715 3.50799 31697 ft 551 kts 105°
2026-04-20 06:06 50.92619 3.56609 32148 ft 549 kts 105°
2026-04-20 06:06 50.91526 3.62384 32640 ft 545 kts 105°
2026-04-20 06:06 50.90435 3.68131 33012 ft 544 kts 105°
2026-04-20 06:07 50.89341 3.73881 33288 ft 545 kts 105°
2026-04-20 06:07 50.88242 3.79632 33619 ft 545 kts 106°
2026-04-20 06:07 50.87135 3.85407 33912 ft 545 kts 106°
2026-04-20 06:07 50.86044 3.91079 34247 ft 545 kts 106°
2026-04-20 06:08 50.84939 3.96811 34555 ft 544 kts 106°
2026-04-20 06:08 50.83832 4.02530 34922 ft 542 kts 106°
2026-04-20 06:08 50.82729 4.08218 35341 ft 539 kts 106°
2026-04-20 06:08 50.81631 4.13867 35742 ft 536 kts 106°
2026-04-20 06:09 50.80532 4.19506 36089 ft 534 kts 106°
2026-04-20 06:09 50.79435 4.25117 36377 ft 533 kts 106°
2026-04-20 06:09 50.78339 4.30713 36641 ft 533 kts 106°
2026-04-20 06:09 50.77242 4.36304 36899 ft 531 kts 106°
2026-04-20 06:10 50.76146 4.41870 37177 ft 530 kts 106°
2026-04-20 06:10 50.75049 4.47390 37239 ft 531 kts 106°
2026-04-20 06:10 50.72842 4.58480 37236 ft 528 kts 106°
2026-04-20 06:11 50.70627 4.69554 37234 ft 528 kts 106°
2026-04-20 06:11 50.68422 4.80532 37240 ft 528 kts 106°
2026-04-20 06:12 50.66098 4.91493 37240 ft 527 kts 112°
2026-04-20 06:12 50.63080 5.02021 37235 ft 527 kts 115°
2026-04-20 06:13 50.59929 5.12462 37236 ft 527 kts 115°
2026-04-20 06:13 50.56747 5.22887 37235 ft 528 kts 115°
2026-04-20 06:14 50.53576 5.33296 37245 ft 528 kts 115°
2026-04-20 06:14 50.50420 5.43652 37239 ft 528 kts 115°
2026-04-20 06:15 50.47222 5.54084 37236 ft 529 kts 115°
2026-04-20 06:15 50.44033 5.64448 37228 ft 530 kts 115°
2026-04-20 06:16 50.40812 5.74851 37227 ft 531 kts 115°
2026-04-20 06:16 50.37584 5.85262 37221 ft 531 kts 116°
2026-04-20 06:17 50.34347 5.95659 37221 ft 532 kts 116°
2026-04-20 06:17 50.31087 6.06063 37211 ft 532 kts 116°
2026-04-20 06:18 50.27819 6.16454 37194 ft 532 kts 116°
2026-04-20 06:18 50.24548 6.26832 37194 ft 532 kts 116°
2026-04-20 06:19 50.21274 6.37135 37181 ft 531 kts 116°
2026-04-20 06:19 50.17592 6.47106 37175 ft 529 kts 129°
2026-04-20 06:20 50.12959 6.56075 37164 ft 529 kts 131°
2026-04-20 06:20 50.08203 6.64830 37167 ft 529 kts 131°
2026-04-20 06:21 50.03464 6.73487 37162 ft 528 kts 131°
2026-04-20 06:21 49.98707 6.82192 37167 ft 527 kts 131°
2026-04-20 06:22 49.93956 6.90885 37164 ft 529 kts 131°
2026-04-20 06:22 49.89168 6.99631 37161 ft 530 kts 131°
2026-04-20 06:23 49.84373 7.08346 37154 ft 530 kts 132°
2026-04-20 06:23 49.79610 7.16976 37155 ft 530 kts 132°
2026-04-20 06:24 49.74813 7.25649 37155 ft 529 kts 132°
2026-04-20 06:24 49.70016 7.34289 37151 ft 528 kts 132°
2026-04-20 06:25 49.65215 7.42905 37152 ft 528 kts 132°
2026-04-20 06:25 49.60448 7.51435 37155 ft 528 kts 132°
2026-04-20 06:26 49.55636 7.60014 37152 ft 527 kts 132°
2026-04-20 06:26 49.50854 7.68508 37156 ft 527 kts 132°
2026-04-20 06:27 49.46050 7.77018 37156 ft 527 kts 132°
2026-04-20 06:27 49.41220 7.85543 37155 ft 527 kts 133°
2026-04-20 06:28 49.36428 7.93977 37166 ft 527 kts 133°
2026-04-20 06:28 49.31591 8.02466 37168 ft 527 kts 133°
2026-04-20 06:29 49.26739 8.10948 37171 ft 527 kts 133°
2026-04-20 06:29 49.21918 8.19351 37163 ft 527 kts 133°
2026-04-20 06:30 49.17068 8.27774 37163 ft 528 kts 133°
2026-04-20 06:30 49.12206 8.36187 37163 ft 528 kts 133°
2026-04-20 06:31 49.07362 8.44549 37166 ft 529 kts 133°
2026-04-20 06:31 49.02473 8.52960 37166 ft 529 kts 133°
2026-04-20 06:32 48.97267 8.60825 37158 ft 527 kts 142°
2026-04-20 06:32 48.91559 8.67871 37152 ft 526 kts 144°
2026-04-20 06:33 48.85800 8.74764 37146 ft 527 kts 144°
2026-04-20 06:33 48.80062 8.81627 37147 ft 528 kts 144°
2026-04-20 06:34 48.74279 8.88546 37138 ft 528 kts 144°
2026-04-20 06:35 48.65639 8.98855 37132 ft 528 kts 144°
2026-04-20 06:35 48.59862 9.05728 37128 ft 528 kts 144°
2026-04-20 06:36 48.54069 9.12593 37128 ft 529 kts 144°
2026-04-20 06:36 48.48305 9.19407 37127 ft 529 kts 144°
2026-04-20 06:37 48.42511 9.26233 37129 ft 528 kts 144°
2026-04-20 06:37 48.36713 9.33050 37126 ft 528 kts 144°
2026-04-20 06:38 48.30948 9.39798 37123 ft 529 kts 144°
2026-04-20 06:38 48.25128 9.46590 37121 ft 529 kts 144°
2026-04-20 06:39 48.19458 9.53677 37111 ft 530 kts 141°
2026-04-20 06:39 48.14868 9.59764 37109 ft 530 kts 141°
2026-04-20 06:40 48.09316 9.67077 37107 ft 531 kts 141°
2026-04-20 06:40 48.03727 9.74312 37105 ft 531 kts 141°
2026-04-20 06:41 47.98113 9.81508 37107 ft 531 kts 142°
2026-04-20 06:41 47.92535 9.88629 37113 ft 531 kts 142°
2026-04-20 06:42 47.86918 9.95815 37112 ft 531 kts 141°
2026-04-20 06:42 47.82127 10.04222 37115 ft 534 kts 123°
2026-04-20 06:43 47.78286 10.13646 37108 ft 535 kts 120°
2026-04-20 06:43 47.74545 10.23285 37102 ft 535 kts 120°
2026-04-20 06:44 47.70846 10.32783 37098 ft 535 kts 120°
2026-04-20 06:44 47.67055 10.42387 37101 ft 535 kts 121°
2026-04-20 06:45 47.63294 10.51833 37105 ft 534 kts 121°
2026-04-20 06:45 47.59505 10.61320 37092 ft 534 kts 121°
2026-04-20 06:46 47.55721 10.70766 37105 ft 535 kts 121°
2026-04-20 06:46 47.51915 10.80227 37106 ft 535 kts 121°
2026-04-20 06:47 47.48101 10.89683 37104 ft 534 kts 121°
2026-04-20 06:47 47.44287 10.99103 37107 ft 533 kts 121°
2026-04-20 06:48 47.40473 11.08498 37108 ft 533 kts 121°
2026-04-20 06:48 47.36656 11.17867 37101 ft 533 kts 122°
2026-04-20 06:49 47.32839 11.27194 37100 ft 533 kts 122°
2026-04-20 06:49 47.28995 11.36562 37101 ft 532 kts 122°
2026-04-20 06:50 47.25152 11.45897 37100 ft 533 kts 122°
2026-04-20 06:50 47.21326 11.55153 37083 ft 532 kts 122°
2026-04-20 06:51 47.17469 11.64449 37101 ft 532 kts 122°
2026-04-20 06:51 47.13606 11.73734 37107 ft 532 kts 122°
2026-04-20 06:52 47.09742 11.82998 37104 ft 533 kts 122°
2026-04-20 06:52 47.06201 11.92564 37080 ft 533 kts 117°
2026-04-20 06:53 47.02913 12.02336 37082 ft 534 kts 116°
2026-04-20 06:53 46.99658 12.12111 37080 ft 533 kts 116°
2026-04-20 06:54 46.96407 12.21805 37079 ft 533 kts 116°
2026-04-20 06:54 46.93122 12.31541 37071 ft 532 kts 116°
2026-04-20 06:55 46.89828 12.41263 37074 ft 532 kts 117°
2026-04-20 06:55 46.86550 12.50885 37072 ft 532 kts 117°
2026-04-20 06:56 46.83241 12.60562 37073 ft 532 kts 117°
2026-04-20 06:56 46.79924 12.70234 37073 ft 532 kts 117°
2026-04-20 06:57 46.76592 12.79917 37075 ft 532 kts 117°
2026-04-20 06:57 46.73284 12.89503 37075 ft 532 kts 117°
2026-04-20 06:58 46.69949 12.99125 37064 ft 531 kts 117°
2026-04-20 06:58 46.66606 13.08722 37040 ft 531 kts 117°
2026-04-20 06:59 46.63256 13.18316 37043 ft 531 kts 117°
2026-04-20 06:59 46.59885 13.27930 37040 ft 531 kts 117°
2026-04-20 07:00 46.56313 13.37252 37033 ft 529 kts 127°
2026-04-20 07:00 46.51469 13.45277 37031 ft 527 kts 136°
2026-04-20 07:01 46.46318 13.52858 37045 ft 527 kts 137°
2026-04-20 07:01 46.41138 13.60371 37046 ft 527 kts 137°
2026-04-20 07:02 46.35982 13.67872 37044 ft 527 kts 137°
2026-04-20 07:02 46.30808 13.75401 37045 ft 528 kts 136°
2026-04-20 07:03 46.25632 13.82927 37051 ft 528 kts 136°
2026-04-20 07:03 46.20451 13.90445 37048 ft 527 kts 136°
2026-04-20 07:04 46.15264 13.97943 37026 ft 527 kts 136°
2026-04-20 07:04 46.10069 14.05428 37032 ft 527 kts 136°
2026-04-20 07:05 46.04874 14.12890 37044 ft 527 kts 136°
2026-04-20 07:05 45.99701 14.20302 37039 ft 527 kts 137°
2026-04-20 07:06 45.94495 14.27739 37037 ft 527 kts 137°
2026-04-20 07:06 45.89283 14.35163 37037 ft 526 kts 137°
2026-04-20 07:07 45.84074 14.42578 37031 ft 526 kts 137°
2026-04-20 07:07 45.78878 14.49951 37035 ft 526 kts 137°
2026-04-20 07:08 45.73699 14.57266 37043 ft 525 kts 137°
2026-04-20 07:08 45.68497 14.64590 37035 ft 524 kts 137°
2026-04-20 07:09 45.63306 14.71886 37032 ft 523 kts 137°
2026-04-20 07:09 45.58107 14.79172 37043 ft 522 kts 137°
2026-04-20 07:10 45.52942 14.86391 37031 ft 521 kts 137°
2026-04-20 07:10 45.47754 14.93627 37027 ft 521 kts 137°
2026-04-20 07:11 45.42561 15.00852 37026 ft 520 kts 137°
2026-04-20 07:11 45.37397 15.08013 37026 ft 519 kts 137°
2026-04-20 07:12 45.32221 15.15169 37026 ft 518 kts 138°
2026-04-20 07:12 45.27043 15.22310 37026 ft 518 kts 138°
2026-04-20 07:13 45.21891 15.29396 37026 ft 518 kts 138°
2026-04-20 07:13 45.16700 15.36513 37027 ft 517 kts 138°
2026-04-20 07:14 45.11532 15.43584 37026 ft 517 kts 138°
2026-04-20 07:14 45.06350 15.50656 37027 ft 517 kts 138°
2026-04-20 07:15 45.01192 15.57677 37046 ft 516 kts 138°
2026-04-20 07:15 44.96017 15.64698 37032 ft 516 kts 138°
2026-04-20 07:16 44.90835 15.71714 37035 ft 515 kts 138°
2026-04-20 07:16 44.85655 15.78709 37033 ft 515 kts 138°
2026-04-20 07:17 44.80496 15.85653 37037 ft 515 kts 138°
2026-04-20 07:17 44.75297 15.92634 37031 ft 515 kts 138°
2026-04-20 07:18 44.70132 15.99559 37032 ft 515 kts 138°
2026-04-20 07:18 44.64927 16.06511 37033 ft 514 kts 138°
2026-04-20 07:19 44.59751 16.13409 37043 ft 513 kts 138°
2026-04-20 07:19 44.54568 16.20299 37048 ft 513 kts 139°
2026-04-20 07:20 44.49382 16.27174 37042 ft 513 kts 139°
2026-04-20 07:20 44.44194 16.34040 37049 ft 513 kts 139°
2026-04-20 07:21 44.39035 16.40845 37054 ft 513 kts 139°
2026-04-20 07:21 44.33834 16.47685 37056 ft 513 kts 139°
2026-04-20 07:22 44.29512 16.53364 37056 ft 513 kts 139°
2026-04-20 07:22 44.24290 16.60197 37056 ft 513 kts 139°
2026-04-20 07:23 44.19075 16.67005 37055 ft 513 kts 139°
2026-04-20 07:23 44.13892 16.73757 37050 ft 513 kts 139°
2026-04-20 07:24 44.08679 16.80532 37056 ft 513 kts 139°
2026-04-20 07:24 44.03453 16.87308 37041 ft 513 kts 139°
2026-04-20 07:25 43.98221 16.94073 37044 ft 513 kts 139°
2026-04-20 07:25 43.92989 17.00824 37041 ft 512 kts 139°
2026-04-20 07:26 43.87791 17.07516 37041 ft 512 kts 139°
2026-04-20 07:26 43.82556 17.14232 37044 ft 512 kts 139°
2026-04-20 07:27 43.77314 17.20938 37042 ft 512 kts 139°
2026-04-20 07:27 43.72100 17.27595 37045 ft 513 kts 139°
2026-04-20 07:28 43.66851 17.34277 37052 ft 512 kts 139°
2026-04-20 07:28 43.61603 17.40946 37054 ft 513 kts 139°
2026-04-20 07:29 43.56375 17.47575 37048 ft 513 kts 139°
2026-04-20 07:29 43.51118 17.54221 37046 ft 512 kts 139°
2026-04-20 07:30 43.45861 17.60847 37047 ft 513 kts 139°
2026-04-20 07:30 43.40599 17.67465 37047 ft 512 kts 139°
2026-04-20 07:31 43.35326 17.74086 37040 ft 512 kts 139°
2026-04-20 07:31 43.30054 17.80689 37048 ft 512 kts 139°
2026-04-20 07:32 43.24773 17.87280 37048 ft 512 kts 140°
2026-04-20 07:32 43.19427 17.93646 37048 ft 511 kts 141°
2026-04-20 07:33 43.14003 17.99947 37043 ft 511 kts 141°
2026-04-20 07:33 43.08584 18.06264 37046 ft 511 kts 141°
2026-04-20 07:34 43.03171 18.12603 37047 ft 510 kts 141°
2026-04-20 07:34 42.97808 18.18881 37045 ft 509 kts 141°
2026-04-20 07:35 42.89728 18.28299 37044 ft 509 kts 141°
2026-04-20 07:35 42.84328 18.34580 37044 ft 510 kts 141°
2026-04-20 07:36 42.78932 18.40838 37041 ft 509 kts 141°
2026-04-20 07:36 42.73553 18.47065 37048 ft 509 kts 141°
2026-04-20 07:37 42.68145 18.53306 37043 ft 509 kts 141°
2026-04-20 07:37 42.62747 18.59522 37044 ft 509 kts 141°
2026-04-20 07:38 42.57371 18.65698 37045 ft 509 kts 141°
2026-04-20 07:38 42.51955 18.71903 37045 ft 509 kts 141°
2026-04-20 07:39 42.46546 18.78090 37056 ft 508 kts 141°
2026-04-20 07:39 42.41137 18.84261 37048 ft 508 kts 141°
2026-04-20 07:40 42.35735 18.90409 37054 ft 507 kts 141°
2026-04-20 07:40 42.30354 18.96519 37056 ft 507 kts 141°
2026-04-20 07:41 42.24956 19.02633 37059 ft 507 kts 141°
2026-04-20 07:41 42.19554 19.08739 37063 ft 507 kts 141°
2026-04-20 07:42 42.14149 19.14835 37064 ft 506 kts 141°
2026-04-20 07:42 42.08746 19.20913 37062 ft 506 kts 141°
2026-04-20 07:43 42.03349 19.26967 37062 ft 505 kts 142°
2026-04-20 07:43 41.97930 19.33035 37064 ft 505 kts 142°
2026-04-20 07:44 41.92555 19.39040 37063 ft 506 kts 142°
2026-04-20 07:44 41.87135 19.45085 37062 ft 506 kts 142°
2026-04-20 07:45 41.81727 19.51106 37055 ft 505 kts 142°
2026-04-20 07:45 41.76320 19.57105 37055 ft 505 kts 142°
2026-04-20 07:46 41.70896 19.63107 37056 ft 504 kts 142°
2026-04-20 07:46 41.65482 19.69088 37056 ft 504 kts 142°
2026-04-20 07:47 41.60063 19.75058 37049 ft 504 kts 142°
2026-04-20 07:47 41.54681 19.80976 37055 ft 504 kts 142°
2026-04-20 07:48 41.49254 19.86933 37058 ft 505 kts 142°
2026-04-20 07:48 41.43825 19.92882 37048 ft 505 kts 142°
2026-04-20 07:49 41.38387 19.98823 37046 ft 506 kts 142°
2026-04-20 07:49 41.32935 20.04763 37051 ft 505 kts 142°
2026-04-20 07:50 41.27492 20.10681 37055 ft 505 kts 142°
2026-04-20 07:50 41.22058 20.16582 37055 ft 505 kts 142°
2026-04-20 07:51 41.16604 20.22484 37054 ft 506 kts 142°
2026-04-20 07:51 41.11139 20.28384 37062 ft 506 kts 142°
2026-04-20 07:52 41.05702 20.34247 37063 ft 507 kts 142°
2026-04-20 07:52 41.00217 20.40147 37072 ft 507 kts 142°
2026-04-20 07:53 40.94721 20.46045 37072 ft 508 kts 142°
2026-04-20 07:53 40.89213 20.51941 37072 ft 509 kts 142°
2026-04-20 07:54 40.83744 20.57784 37073 ft 509 kts 142°
2026-04-20 07:54 40.78241 20.63652 37073 ft 509 kts 143°
2026-04-20 07:55 40.72717 20.69529 37073 ft 510 kts 143°
2026-04-20 07:55 40.67211 20.75373 37073 ft 510 kts 143°
2026-04-20 07:56 40.61679 20.81235 37075 ft 510 kts 143°
2026-04-20 07:56 40.56155 20.87074 37073 ft 509 kts 143°
2026-04-20 07:57 40.50625 20.92904 37072 ft 509 kts 143°
2026-04-20 07:57 40.45094 20.98762 37072 ft 509 kts 142°
2026-04-20 07:58 40.39674 21.04714 37074 ft 510 kts 141°
2026-04-20 07:58 40.34241 21.10706 37074 ft 510 kts 141°
2026-04-20 07:59 40.28798 21.16662 37072 ft 510 kts 142°
2026-04-20 07:59 40.23334 21.22609 37064 ft 510 kts 142°
2026-04-20 08:00 40.17861 21.28551 37063 ft 510 kts 142°
2026-04-20 08:00 40.12415 21.34447 37062 ft 510 kts 142°
2026-04-20 08:01 40.06940 21.40363 37062 ft 510 kts 142°
2026-04-20 08:01 40.01460 21.46273 37064 ft 511 kts 142°
2026-04-20 08:02 39.95971 21.52178 37064 ft 511 kts 142°
2026-04-20 08:02 39.90515 21.58039 37062 ft 512 kts 142°
2026-04-20 08:03 39.85006 21.63946 37062 ft 512 kts 142°
2026-04-20 08:03 39.79505 21.69828 37065 ft 512 kts 142°
2026-04-20 08:04 39.73999 21.75701 37063 ft 512 kts 142°
2026-04-20 08:04 39.69423 21.80571 37063 ft 512 kts 142°
2026-04-20 08:05 39.63019 21.87377 37055 ft 512 kts 142°
2026-04-20 08:05 39.58402 21.92275 37046 ft 512 kts 142°
2026-04-20 08:06 39.52918 21.98082 37042 ft 511 kts 142°
2026-04-20 08:06 39.47397 22.03916 37048 ft 511 kts 142°
2026-04-20 08:07 39.41876 22.09732 37040 ft 511 kts 142°
2026-04-20 08:07 39.36358 22.15531 37036 ft 511 kts 142°
2026-04-20 08:08 39.30839 22.21324 37032 ft 511 kts 142°
2026-04-20 08:08 39.25315 22.27111 37032 ft 511 kts 142°
2026-04-20 08:09 39.19789 22.32886 37026 ft 511 kts 142°
2026-04-20 08:09 39.14284 22.38628 37027 ft 512 kts 143°
2026-04-20 08:10 39.08736 22.44401 37027 ft 512 kts 143°
2026-04-20 08:10 39.03201 22.50153 37026 ft 512 kts 143°
2026-04-20 08:11 38.97644 22.55913 37026 ft 512 kts 143°
2026-04-20 08:11 38.92125 22.61614 37026 ft 512 kts 143°
2026-04-20 08:12 38.86570 22.67347 37027 ft 512 kts 143°
2026-04-20 08:12 38.81010 22.73075 37034 ft 512 kts 143°
2026-04-20 08:13 38.75482 22.78767 37037 ft 512 kts 143°
2026-04-20 08:13 38.69913 22.84479 37035 ft 512 kts 143°
2026-04-20 08:14 38.64344 22.90175 37040 ft 512 kts 143°
2026-04-20 08:14 38.58802 22.95834 37031 ft 512 kts 143°
2026-04-20 08:15 38.53237 23.01508 37041 ft 512 kts 143°
2026-04-20 08:15 38.47660 23.07181 37035 ft 511 kts 143°
2026-04-20 08:16 38.42111 23.12812 37036 ft 511 kts 143°
2026-04-20 08:16 38.36543 23.18455 37049 ft 512 kts 143°
2026-04-20 08:17 38.30964 23.24099 37047 ft 512 kts 143°
2026-04-20 08:17 38.25360 23.29756 37049 ft 512 kts 143°
2026-04-20 08:18 38.19809 23.35343 37044 ft 512 kts 143°
2026-04-20 08:18 38.14210 23.40973 37047 ft 512 kts 143°
2026-04-20 08:19 38.08625 23.46578 37044 ft 512 kts 143°
2026-04-20 08:19 38.03062 23.52148 37044 ft 512 kts 144°
2026-04-20 08:20 37.97463 23.57741 37044 ft 511 kts 144°
2026-04-20 08:20 37.91871 23.63317 37046 ft 512 kts 144°
2026-04-20 08:21 37.86267 23.68895 37048 ft 512 kts 144°
2026-04-20 08:21 37.80649 23.74475 37045 ft 512 kts 144°
2026-04-20 08:22 37.75037 23.80036 37045 ft 512 kts 144°
2026-04-20 08:22 37.69421 23.85591 37051 ft 512 kts 144°
2026-04-20 08:23 37.63821 23.91124 37051 ft 512 kts 144°
2026-04-20 08:23 37.58211 23.96650 37055 ft 512 kts 144°
2026-04-20 08:24 37.52585 24.02180 37055 ft 512 kts 144°
2026-04-20 08:24 37.46958 24.07703 37055 ft 512 kts 144°
2026-04-20 08:25 37.41366 24.13179 37055 ft 512 kts 144°
2026-04-20 08:25 37.35720 24.18695 37059 ft 512 kts 144°
2026-04-20 08:26 37.30122 24.24158 37062 ft 512 kts 144°
2026-04-20 08:26 37.24481 24.29651 37064 ft 512 kts 145°
2026-04-20 08:27 37.18882 24.35097 37073 ft 512 kts 145°
2026-04-20 08:27 37.13246 24.40566 37073 ft 512 kts 145°
2026-04-20 08:28 37.07606 24.46026 37073 ft 511 kts 145°
2026-04-20 08:28 37.01966 24.51476 37072 ft 512 kts 145°
2026-04-20 08:29 36.96339 24.56906 37073 ft 512 kts 145°
2026-04-20 08:29 36.90688 24.62345 37072 ft 512 kts 145°
2026-04-20 08:30 36.85032 24.67776 37072 ft 512 kts 145°
2026-04-20 08:30 36.79381 24.73195 37073 ft 512 kts 146°
2026-04-20 08:31 36.73745 24.78589 37072 ft 512 kts 146°
2026-04-20 08:31 36.68076 24.84007 37073 ft 512 kts 146°
2026-04-20 08:32 36.62445 24.89379 37073 ft 512 kts 146°
2026-04-20 08:32 36.56770 24.94778 37073 ft 512 kts 146°
2026-04-20 08:33 36.48257 25.02857 37072 ft 512 kts 146°
2026-04-20 08:34 36.42622 25.08199 37073 ft 512 kts 146°
2026-04-20 08:34 36.36940 25.13574 37073 ft 512 kts 146°
2026-04-20 08:35 36.31292 25.18900 37072 ft 513 kts 146°
2026-04-20 08:35 36.25614 25.24249 37072 ft 513 kts 146°
2026-04-20 08:36 36.19926 25.29597 37073 ft 513 kts 146°
2026-04-20 08:36 36.14265 25.34905 37072 ft 513 kts 146°
2026-04-20 08:37 36.08570 25.40236 37072 ft 513 kts 146°
2026-04-20 08:37 36.02866 25.45570 37072 ft 513 kts 146°
2026-04-20 08:38 35.97154 25.50901 37072 ft 514 kts 147°
2026-04-20 08:38 35.91438 25.56224 37073 ft 514 kts 147°
2026-04-20 08:39 35.85755 25.61508 37073 ft 515 kts 147°
2026-04-20 08:39 35.80043 25.66809 37073 ft 514 kts 147°
2026-04-20 08:40 35.74321 25.72108 37072 ft 514 kts 147°
2026-04-20 08:40 35.68593 25.77404 37073 ft 514 kts 147°
2026-04-20 08:41 35.62875 25.82682 37073 ft 514 kts 147°
2026-04-20 08:41 35.57176 25.87932 37073 ft 514 kts 147°
2026-04-20 08:42 35.51447 25.93199 37068 ft 515 kts 147°
2026-04-20 08:42 35.45705 25.98466 37064 ft 514 kts 147°
2026-04-20 08:43 35.39964 26.03724 37063 ft 515 kts 147°
2026-04-20 08:43 35.34264 26.08942 37064 ft 515 kts 147°
2026-04-20 08:44 35.28508 26.14198 37060 ft 515 kts 147°
2026-04-20 08:44 35.22743 26.19449 37044 ft 515 kts 147°
2026-04-20 08:45 35.17015 26.24662 37047 ft 515 kts 147°
2026-04-20 08:45 35.11245 26.29900 37031 ft 515 kts 147°
2026-04-20 08:46 35.05511 26.35092 37032 ft 516 kts 147°
2026-04-20 08:46 34.99748 26.40305 37031 ft 516 kts 147°
2026-04-20 08:47 34.93968 26.45524 37027 ft 516 kts 147°
2026-04-20 08:47 34.88190 26.50733 37026 ft 516 kts 148°
2026-04-20 08:48 34.82424 26.55921 37026 ft 517 kts 148°
2026-04-20 08:48 34.76623 26.61133 37026 ft 517 kts 148°
2026-04-20 08:49 34.70873 26.66287 37026 ft 517 kts 148°
2026-04-20 08:49 34.65078 26.71473 37026 ft 517 kts 148°
2026-04-20 08:50 34.59268 26.76664 37026 ft 517 kts 148°
2026-04-20 08:50 34.53466 26.81839 37026 ft 518 kts 148°
2026-04-20 08:51 34.47702 26.86973 37027 ft 518 kts 148°
2026-04-20 08:51 34.41892 26.92133 37026 ft 517 kts 148°
2026-04-20 08:52 34.36083 26.97285 37026 ft 518 kts 148°
2026-04-20 08:52 34.31240 27.01572 37028 ft 518 kts 148°
2026-04-20 08:53 34.25417 27.06722 37026 ft 518 kts 148°
2026-04-20 08:53 34.19587 27.11869 37032 ft 518 kts 148°
2026-04-20 08:54 34.13803 27.16966 37028 ft 518 kts 148°
2026-04-20 08:54 34.07965 27.22102 37008 ft 518 kts 148°
2026-04-20 08:55 34.02128 27.27228 37009 ft 518 kts 148°
2026-04-20 08:55 33.96261 27.32284 37006 ft 516 kts 153°
2026-04-20 08:56 33.89909 27.36166 37007 ft 510 kts 161°
2026-04-20 08:56 33.83461 27.39609 37017 ft 510 kts 162°
2026-04-20 08:57 33.76955 27.43015 37017 ft 510 kts 162°
2026-04-20 08:57 33.70446 27.46434 37017 ft 510 kts 161°
2026-04-20 08:58 33.63972 27.49848 37017 ft 510 kts 161°
2026-04-20 08:58 33.57470 27.53278 37026 ft 510 kts 161°
2026-04-20 08:59 33.50959 27.56706 37027 ft 510 kts 161°
2026-04-20 08:59 33.44455 27.60122 37026 ft 510 kts 161°
2026-04-20 09:00 33.37996 27.63510 37028 ft 509 kts 161°
2026-04-20 09:00 33.31507 27.66905 37039 ft 509 kts 161°
2026-04-20 09:01 33.25020 27.70297 37034 ft 509 kts 162°
2026-04-20 09:01 33.18505 27.73697 37042 ft 510 kts 162°
2026-04-20 09:02 33.12041 27.77067 37044 ft 509 kts 162°
2026-04-20 09:02 33.05545 27.80447 37047 ft 509 kts 162°
2026-04-20 09:03 32.99054 27.83820 37047 ft 509 kts 162°
2026-04-20 09:03 32.92551 27.87191 37041 ft 508 kts 162°
2026-04-20 09:04 32.86090 27.90535 37050 ft 508 kts 162°
2026-04-20 09:04 32.79586 27.93897 37056 ft 508 kts 162°
2026-04-20 09:05 32.73099 27.97244 37056 ft 508 kts 162°
2026-04-20 09:05 32.66655 28.00565 37057 ft 508 kts 162°
2026-04-20 09:06 32.60177 28.03898 37057 ft 508 kts 162°
2026-04-20 09:06 32.53683 28.07236 37057 ft 507 kts 163°
2026-04-20 09:07 32.47216 28.10551 37062 ft 506 kts 163°
2026-04-20 09:07 32.40741 28.13866 37063 ft 506 kts 163°
2026-04-20 09:08 32.34306 28.17156 37063 ft 506 kts 163°
2026-04-20 09:08 32.27843 28.20454 37062 ft 506 kts 163°
2026-04-20 09:09 32.21366 28.23756 37063 ft 506 kts 163°
2026-04-20 09:09 32.14900 28.27046 37063 ft 506 kts 163°
2026-04-20 09:10 32.08462 28.30316 37063 ft 506 kts 163°
2026-04-20 09:10 32.02000 28.33594 37072 ft 506 kts 163°
2026-04-20 09:11 31.95524 28.36876 37073 ft 506 kts 163°
2026-04-20 09:11 31.89051 28.40150 37073 ft 506 kts 163°
2026-04-20 09:12 31.82562 28.43425 37073 ft 506 kts 163°
2026-04-20 09:12 31.76092 28.46673 37073 ft 506 kts 163°
2026-04-20 09:13 31.69615 28.49917 37064 ft 506 kts 163°
2026-04-20 09:13 31.63176 28.53140 37063 ft 507 kts 163°
2026-04-20 09:14 31.56680 28.56396 37063 ft 507 kts 163°
2026-04-20 09:14 31.50185 28.59628 37063 ft 507 kts 164°
2026-04-20 09:15 31.43679 28.62856 37063 ft 507 kts 164°
2026-04-20 09:15 31.37218 28.66061 37071 ft 507 kts 164°
2026-04-20 09:16 31.30713 28.69285 37073 ft 508 kts 164°
2026-04-20 09:16 31.24192 28.72512 37073 ft 508 kts 164°
2026-04-20 09:17 31.17672 28.75736 37073 ft 508 kts 164°
2026-04-20 09:17 31.11158 28.78949 37072 ft 508 kts 164°
2026-04-20 09:18 31.04642 28.82162 37074 ft 509 kts 164°
2026-04-20 09:18 30.98155 28.85354 37073 ft 508 kts 164°
2026-04-20 09:19 30.91629 28.88559 37073 ft 508 kts 164°
2026-04-20 09:19 30.85110 28.91754 37073 ft 508 kts 164°
2026-04-20 09:20 30.78594 28.94946 37073 ft 509 kts 165°
2026-04-20 09:20 30.72065 28.98140 37073 ft 509 kts 165°
2026-04-20 09:21 30.65542 29.01329 37063 ft 509 kts 165°
2026-04-20 09:21 30.59006 29.04515 37063 ft 509 kts 165°
2026-04-20 09:22 30.52523 29.07801 37064 ft 515 kts 159°
2026-04-20 09:22 30.46681 29.12813 37065 ft 531 kts 142°
2026-04-20 09:23 30.41488 29.18916 37063 ft 535 kts 139°
2026-04-20 09:23 30.36364 29.25189 37062 ft 535 kts 139°
2026-04-20 09:24 30.31245 29.31379 37065 ft 535 kts 140°
2026-04-20 09:24 30.26064 29.37587 37063 ft 535 kts 140°
2026-04-20 09:25 30.20885 29.43757 37056 ft 535 kts 140°
2026-04-20 09:25 30.15698 29.49929 37055 ft 534 kts 140°
2026-04-20 09:26 30.10513 29.56093 37055 ft 535 kts 140°
2026-04-20 09:26 30.05337 29.62240 37062 ft 535 kts 140°
2026-04-20 09:27 30.00148 29.68393 37062 ft 535 kts 140°
2026-04-20 09:27 29.94950 29.74547 37064 ft 535 kts 140°
2026-04-20 09:28 29.89780 29.80656 37064 ft 535 kts 141°
2026-04-20 09:28 29.84575 29.86800 37056 ft 535 kts 141°
2026-04-20 09:29 29.79369 29.92938 37056 ft 535 kts 141°
2026-04-20 09:29 29.74153 29.99072 37056 ft 535 kts 141°
2026-04-20 09:30 29.68972 30.05155 37056 ft 535 kts 141°
2026-04-20 09:30 29.63752 30.11276 37054 ft 536 kts 141°
2026-04-20 09:31 29.58540 30.17378 37050 ft 535 kts 141°
2026-04-20 09:31 29.53321 30.23477 37055 ft 535 kts 141°
2026-04-20 09:32 29.48082 30.29590 37056 ft 535 kts 141°
2026-04-20 09:32 29.42877 30.35660 37055 ft 536 kts 141°
2026-04-20 09:33 29.37650 30.41759 37055 ft 536 kts 141°
2026-04-20 09:33 29.32483 30.47930 37052 ft 537 kts 141°
2026-04-20 09:34 29.27320 30.54125 37053 ft 538 kts 141°
2026-04-20 09:34 29.19541 30.63401 37055 ft 538 kts 141°
2026-04-20 09:35 29.14362 30.69550 37055 ft 538 kts 141°
2026-04-20 09:35 29.09160 30.75723 37053 ft 539 kts 141°
2026-04-20 09:36 29.03940 30.81904 37055 ft 539 kts 141°
2026-04-20 09:36 28.98750 30.88038 37054 ft 539 kts 142°
2026-04-20 09:37 28.93538 30.94194 37054 ft 539 kts 142°
2026-04-20 09:37 28.88314 31.00348 37056 ft 539 kts 142°
2026-04-20 09:38 28.83112 31.06467 37055 ft 539 kts 142°
2026-04-20 09:38 28.77887 31.12605 37054 ft 540 kts 142°
2026-04-20 09:39 28.73532 31.17717 37054 ft 540 kts 142°
2026-04-20 09:39 28.68291 31.23884 37055 ft 541 kts 141°
2026-04-20 09:40 28.62395 31.31301 37056 ft 544 kts 139°
2026-04-20 09:40 28.58213 31.36659 37053 ft 544 kts 140°
2026-04-20 09:41 28.53160 31.43061 37056 ft 544 kts 140°
2026-04-20 09:41 28.48073 31.49451 37055 ft 544 kts 140°
2026-04-20 09:42 28.42974 31.55834 37054 ft 545 kts 140°
2026-04-20 09:42 28.37903 31.62172 37048 ft 545 kts 141°
2026-04-20 09:43 28.32802 31.68547 37045 ft 545 kts 141°
2026-04-20 09:43 28.27699 31.74911 37047 ft 545 kts 141°
2026-04-20 09:44 28.22587 31.81276 37032 ft 546 kts 141°
2026-04-20 09:44 28.17487 31.87616 37026 ft 546 kts 141°
2026-04-20 09:45 28.12347 31.93996 37022 ft 546 kts 141°
2026-04-20 09:45 28.07249 32.00316 37017 ft 546 kts 141°
2026-04-20 09:46 28.02469 32.07124 37023 ft 561 kts 128°
2026-04-20 09:46 27.98582 32.14832 37014 ft 565 kts 126°
2026-04-20 09:47 27.94871 32.22621 37008 ft 566 kts 125°
2026-04-20 09:47 27.91136 32.30453 37007 ft 566 kts 125°
2026-04-20 09:48 27.87368 32.38276 36999 ft 566 kts 126°
2026-04-20 09:48 27.83585 32.46082 36999 ft 566 kts 126°
2026-04-20 09:49 27.79820 32.53835 36975 ft 567 kts 126°
2026-04-20 09:49 27.76017 32.61658 36961 ft 566 kts 126°
2026-04-20 09:50 27.72219 32.69454 36963 ft 566 kts 126°
2026-04-20 09:50 27.68442 32.77193 36962 ft 566 kts 126°
2026-04-20 09:51 27.64624 32.84994 36952 ft 567 kts 126°
2026-04-20 09:51 27.60797 32.92800 36943 ft 568 kts 126°
2026-04-20 09:52 27.56990 33.00553 36945 ft 568 kts 126°
2026-04-20 09:52 27.53152 33.08358 36941 ft 568 kts 127°
2026-04-20 09:53 27.49322 33.16138 36943 ft 567 kts 127°
2026-04-20 09:53 27.45496 33.23888 36943 ft 567 kts 127°
2026-04-20 09:54 27.41661 33.31643 36942 ft 566 kts 127°
2026-04-20 09:54 27.37828 33.39383 36943 ft 566 kts 127°
2026-04-20 09:55 27.34000 33.47101 36944 ft 566 kts 127°
2026-04-20 09:55 27.30151 33.54839 36944 ft 567 kts 127°
2026-04-20 09:56 27.26309 33.62553 36943 ft 567 kts 127°
2026-04-20 09:56 27.22448 33.70289 36935 ft 567 kts 127°
2026-04-20 09:57 27.18594 33.78032 36929 ft 569 kts 126°
2026-04-20 09:57 27.15386 33.86258 36933 ft 577 kts 119°
2026-04-20 09:58 27.12419 33.94588 36934 ft 578 kts 118°
2026-04-20 09:58 27.09459 34.02990 36936 ft 578 kts 118°
2026-04-20 09:59 27.06478 34.11383 36934 ft 579 kts 118°
2026-04-20 09:59 27.03473 34.19783 36935 ft 580 kts 118°
2026-04-20 10:00 27.00482 34.28128 36934 ft 580 kts 118°
2026-04-20 10:00 26.97456 34.36544 36934 ft 582 kts 118°
2026-04-20 10:01 26.94416 34.44980 36943 ft 583 kts 118°
2026-04-20 10:01 26.91383 34.53379 36943 ft 583 kts 119°
2026-04-20 10:02 26.88339 34.61793 36937 ft 583 kts 119°
2026-04-20 10:02 26.85300 34.70179 36934 ft 583 kts 119°
2026-04-20 10:03 26.82237 34.78610 36934 ft 583 kts 119°
2026-04-20 10:03 26.79192 34.86973 36934 ft 582 kts 119°
2026-04-20 10:04 26.76125 34.95383 36935 ft 583 kts 119°
2026-04-20 10:04 26.73047 35.03811 36929 ft 584 kts 119°
2026-04-20 10:05 26.69973 35.12197 36913 ft 585 kts 119°
2026-04-20 10:05 26.66875 35.20637 36909 ft 585 kts 119°
2026-04-20 10:06 26.63776 35.29066 36927 ft 586 kts 119°
2026-04-20 10:06 26.60667 35.37500 36911 ft 587 kts 119°
2026-04-20 10:07 26.57564 35.45902 36913 ft 588 kts 119°
2026-04-20 10:07 26.54422 35.54335 36906 ft 587 kts 120°
2026-04-20 10:08 26.51208 35.62722 36905 ft 586 kts 120°
2026-04-20 10:08 26.47973 35.71110 36904 ft 588 kts 120°
2026-04-20 10:09 26.44766 35.79455 36901 ft 589 kts 120°
2026-04-20 10:09 26.41526 35.87889 36898 ft 590 kts 121°
2026-04-20 10:10 26.38283 35.96321 36898 ft 590 kts 121°
2026-04-20 10:10 26.35059 36.04689 36888 ft 590 kts 121°
2026-04-20 10:11 26.31814 36.13090 36885 ft 590 kts 121°
2026-04-20 10:11 26.28555 36.21501 36886 ft 590 kts 121°
2026-04-20 10:12 26.25296 36.29904 36886 ft 590 kts 121°
2026-04-20 10:12 26.22033 36.38294 36889 ft 590 kts 121°
2026-04-20 10:13 26.18779 36.46631 36883 ft 589 kts 121°
2026-04-20 10:13 26.15063 36.54676 36889 ft 582 kts 127°
2026-04-20 10:14 26.11180 36.62595 36886 ft 582 kts 127°
2026-04-20 10:14 26.07264 36.70490 36886 ft 582 kts 127°
2026-04-20 10:15 26.03387 36.78321 36887 ft 581 kts 127°
2026-04-20 10:15 25.99486 36.86198 36884 ft 581 kts 127°
2026-04-20 10:16 25.95579 36.94072 36889 ft 581 kts 127°
2026-04-20 10:16 25.91669 37.01948 36887 ft 581 kts 127°
2026-04-20 10:17 25.87781 37.09763 36887 ft 580 kts 127°
2026-04-20 10:17 25.83878 37.17595 36887 ft 579 kts 127°
2026-04-20 10:18 25.79967 37.25427 36887 ft 579 kts 127°
2026-04-20 10:18 25.76095 37.33205 36883 ft 579 kts 127°
2026-04-20 10:19 25.72198 37.41027 36887 ft 578 kts 127°
2026-04-20 10:19 25.68303 37.48838 36886 ft 578 kts 127°
2026-04-20 10:20 25.64398 37.56654 36889 ft 579 kts 127°
2026-04-20 10:20 25.60495 37.64453 36887 ft 578 kts 127°
2026-04-20 10:21 25.56586 37.72243 36880 ft 578 kts 127°
2026-04-20 10:21 25.52668 37.80038 36868 ft 578 kts 127°
2026-04-20 10:22 25.48782 37.87759 36870 ft 578 kts 127°
2026-04-20 10:22 25.44851 37.95557 36868 ft 578 kts 127°
2026-04-20 10:23 25.40941 38.03292 36859 ft 578 kts 127°
2026-04-20 10:23 25.37013 38.11047 36859 ft 578 kts 127°
2026-04-20 10:24 25.33088 38.18800 36869 ft 578 kts 127°
2026-04-20 10:24 25.29153 38.26560 36860 ft 577 kts 127°
2026-04-20 10:25 25.25212 38.34314 36861 ft 577 kts 127°
2026-04-20 10:25 25.21305 38.41988 36860 ft 576 kts 127°
2026-04-20 10:26 25.17363 38.49704 36860 ft 577 kts 127°
2026-04-20 10:26 25.13421 38.57427 36861 ft 576 kts 127°
2026-04-20 10:27 25.09473 38.65128 36858 ft 576 kts 127°
2026-04-20 10:27 25.05537 38.72792 36857 ft 576 kts 127°
2026-04-20 10:28 25.02248 38.79186 36859 ft 576 kts 127°
2026-04-20 10:28 24.98284 38.86875 36860 ft 576 kts 127°
2026-04-20 10:29 24.94321 38.94555 36868 ft 576 kts 127°
2026-04-20 10:29 24.90352 39.02231 36870 ft 577 kts 127°
2026-04-20 10:30 24.86358 39.09935 36880 ft 578 kts 127°
2026-04-20 10:30 24.82393 39.17579 36888 ft 578 kts 127°
2026-04-20 10:31 24.78395 39.25280 36888 ft 577 kts 127°
2026-04-20 10:31 24.74419 39.32908 36893 ft 578 kts 127°
2026-04-20 10:32 24.70416 39.40584 36897 ft 578 kts 126°
2026-04-20 10:32 24.66410 39.48261 36906 ft 578 kts 126°
2026-04-20 10:33 24.62400 39.55931 36900 ft 579 kts 126°
2026-04-20 10:33 24.58377 39.63613 36913 ft 578 kts 126°
2026-04-20 10:34 24.55013 39.71634 36909 ft 590 kts 108°
2026-04-20 10:35 24.53219 39.85081 36914 ft 596 kts 97°
2026-04-20 10:35 24.52421 39.94136 36900 ft 596 kts 96°
2026-04-20 10:36 24.51603 40.03208 36914 ft 595 kts 97°
2026-04-20 10:36 24.50739 40.12206 36913 ft 595 kts 97°
2026-04-20 10:37 24.49848 40.21245 36909 ft 595 kts 97°
2026-04-20 10:37 24.48956 40.30248 36904 ft 595 kts 97°
2026-04-20 10:38 24.48057 40.39288 36907 ft 594 kts 97°
2026-04-20 10:38 24.47153 40.48320 36913 ft 594 kts 97°
2026-04-20 10:39 24.46251 40.57280 36908 ft 594 kts 97°
2026-04-20 10:39 24.45339 40.66308 36913 ft 593 kts 97°
2026-04-20 10:40 24.44425 40.75259 36899 ft 593 kts 97°
2026-04-20 10:40 24.43499 40.84254 36912 ft 593 kts 98°
2026-04-20 10:41 24.42571 40.93255 36911 ft 592 kts 98°
2026-04-20 10:41 24.41644 41.02185 36904 ft 591 kts 98°
2026-04-20 10:42 24.40712 41.11150 36940 ft 591 kts 98°
2026-04-20 10:42 24.39773 41.20105 36953 ft 590 kts 98°
2026-04-20 10:43 24.38829 41.29032 36960 ft 589 kts 98°
2026-04-20 10:43 24.37881 41.37972 36962 ft 588 kts 98°
2026-04-20 10:44 24.36933 41.46878 36962 ft 587 kts 98°
2026-04-20 10:44 24.35985 41.55714 36968 ft 587 kts 98°
2026-04-20 10:45 24.35027 41.64595 36971 ft 585 kts 98°
2026-04-20 10:45 24.34065 41.73464 36952 ft 585 kts 98°
2026-04-20 10:46 24.32980 41.82248 36962 ft 582 kts 105°
2026-04-20 10:46 24.30934 41.90816 36962 ft 581 kts 108°
2026-04-20 10:47 24.28687 41.99339 36961 ft 580 kts 109°
2026-04-20 10:47 24.26416 42.07846 36962 ft 580 kts 109°
2026-04-20 10:48 24.24175 42.16289 36963 ft 580 kts 109°
2026-04-20 10:48 24.21923 42.24783 36962 ft 580 kts 109°
2026-04-20 10:49 24.19671 42.33273 36962 ft 580 kts 109°
2026-04-20 10:49 24.17415 42.41762 36962 ft 580 kts 109°
2026-04-20 10:50 24.15164 42.50200 36967 ft 580 kts 109°
2026-04-20 10:50 24.12897 42.58675 36971 ft 580 kts 109°
2026-04-20 10:51 24.10637 42.67111 36965 ft 580 kts 109°
2026-04-20 10:51 24.08362 42.75576 36961 ft 580 kts 109°
2026-04-20 10:52 24.06073 42.84070 36961 ft 580 kts 109°
2026-04-20 10:52 24.03797 42.92507 36962 ft 580 kts 109°
2026-04-20 10:53 24.01503 43.00979 36962 ft 580 kts 109°
2026-04-20 10:53 23.99201 43.09451 36962 ft 580 kts 109°
2026-04-20 10:54 23.96920 43.17829 36963 ft 577 kts 109°
2026-04-20 10:54 23.94629 43.26236 36961 ft 576 kts 109°
2026-04-20 10:55 23.92340 43.34628 36961 ft 577 kts 109°
2026-04-20 10:55 23.90035 43.43039 36962 ft 577 kts 109°
2026-04-20 10:56 23.87725 43.51448 36962 ft 577 kts 109°
2026-04-20 10:56 23.85413 43.59846 36962 ft 578 kts 109°
2026-04-20 10:57 23.83098 43.68238 36962 ft 577 kts 109°
2026-04-20 10:57 23.80788 43.76600 36962 ft 577 kts 109°
2026-04-20 10:58 23.78456 43.85020 36961 ft 577 kts 109°
2026-04-20 10:58 23.77035 43.93664 36962 ft 580 kts 96°
2026-04-20 10:59 23.76321 44.02392 36961 ft 581 kts 95°
2026-04-20 10:59 23.75705 44.11198 36962 ft 581 kts 95°
2026-04-20 11:00 23.75075 44.19988 36962 ft 580 kts 95°
2026-04-20 11:00 23.74415 44.28776 36961 ft 580 kts 95°
2026-04-20 11:01 23.73746 44.37523 36962 ft 580 kts 95°
2026-04-20 11:01 23.73071 44.46301 36961 ft 579 kts 95°
2026-04-20 11:02 23.72392 44.55061 36963 ft 579 kts 95°
2026-04-20 11:02 23.71708 44.63823 36961 ft 578 kts 95°
2026-04-20 11:03 23.71025 44.72511 36962 ft 578 kts 95°
2026-04-20 11:03 23.70334 44.81270 36961 ft 578 kts 95°
2026-04-20 11:04 23.69639 44.90003 36962 ft 577 kts 95°
2026-04-20 11:04 23.68940 44.98697 36962 ft 577 kts 95°
2026-04-20 11:05 23.68232 45.07434 36962 ft 577 kts 95°
2026-04-20 11:05 23.67522 45.16151 36962 ft 576 kts 95°
2026-04-20 11:06 23.66810 45.24866 36948 ft 576 kts 95°
2026-04-20 11:06 23.66092 45.33575 36943 ft 576 kts 95°
2026-04-20 11:07 23.65369 45.42229 36934 ft 576 kts 95°
2026-04-20 11:07 23.64641 45.50921 36935 ft 576 kts 95°
2026-04-20 11:08 23.63906 45.59643 36935 ft 577 kts 95°
2026-04-20 11:08 23.63174 45.68320 36935 ft 577 kts 95°
2026-04-20 11:09 23.62430 45.77028 36933 ft 577 kts 95°
2026-04-20 11:09 23.61677 45.85748 36934 ft 577 kts 95°
2026-04-20 11:10 23.60922 45.94463 36935 ft 577 kts 95°
2026-04-20 11:10 23.60162 46.03169 36935 ft 577 kts 95°
2026-04-20 11:11 23.59397 46.11877 36930 ft 577 kts 95°
2026-04-20 11:11 23.58631 46.20538 36930 ft 576 kts 95°
2026-04-20 11:12 23.57861 46.29230 36930 ft 575 kts 95°
2026-04-20 11:12 23.57086 46.37914 36944 ft 576 kts 95°
2026-04-20 11:13 23.56300 46.46622 36955 ft 576 kts 95°
2026-04-20 11:13 23.55520 46.55251 36949 ft 575 kts 95°
2026-04-20 11:14 23.54730 46.63926 36952 ft 574 kts 95°
2026-04-20 11:14 23.53932 46.72607 36952 ft 574 kts 95°
2026-04-20 11:15 23.53131 46.81258 36952 ft 574 kts 95°
2026-04-20 11:15 23.52330 46.89879 36952 ft 573 kts 95°
2026-04-20 11:16 23.51522 46.98550 36953 ft 573 kts 95°
2026-04-20 11:16 23.50846 47.05744 36953 ft 573 kts 95°
2026-04-20 11:17 23.50028 47.14398 36953 ft 573 kts 95°
2026-04-20 11:17 23.49212 47.22989 36952 ft 573 kts 95°
2026-04-20 11:18 23.48386 47.31628 36952 ft 573 kts 95°
2026-04-20 11:18 23.47554 47.40280 36962 ft 573 kts 95°
2026-04-20 11:19 23.46721 47.48886 36962 ft 573 kts 95°
2026-04-20 11:19 23.45882 47.57526 36962 ft 573 kts 95°
2026-04-20 11:20 23.45036 47.66179 36953 ft 573 kts 95°
2026-04-20 11:20 23.44192 47.74758 36952 ft 573 kts 95°
2026-04-20 11:21 23.43338 47.83381 36952 ft 573 kts 95°
2026-04-20 11:21 23.42480 47.92015 36904 ft 573 kts 95°
2026-04-20 11:22 23.41616 48.00654 36912 ft 573 kts 95°
2026-04-20 11:22 23.40752 48.09246 36905 ft 573 kts 95°
2026-04-20 11:23 23.39880 48.17865 36903 ft 572 kts 95°
2026-04-20 11:23 23.39001 48.26505 36897 ft 572 kts 95°
2026-04-20 11:24 23.38126 48.35054 36905 ft 571 kts 95°
2026-04-20 11:24 23.37617 48.43691 36898 ft 570 kts 90°
2026-04-20 11:25 23.37403 48.52321 36891 ft 570 kts 89°
2026-04-20 11:25 23.37135 48.60912 36891 ft 570 kts 90°
2026-04-20 11:26 23.36798 48.69546 36889 ft 570 kts 90°
2026-04-20 11:26 23.36433 48.78162 36885 ft 570 kts 90°
2026-04-20 11:27 23.36058 48.86783 36888 ft 570 kts 90°
2026-04-20 11:27 23.35682 48.95400 36884 ft 570 kts 90°
2026-04-20 11:28 23.35306 49.03975 36884 ft 570 kts 90°
2026-04-20 11:28 23.34344 49.12566 36885 ft 571 kts 97°
2026-04-20 11:29 23.33134 49.21129 36881 ft 572 kts 97°
2026-04-20 11:29 23.31881 49.29694 36877 ft 572 kts 97°
2026-04-20 11:30 23.30635 49.38237 36880 ft 572 kts 97°
2026-04-20 11:30 23.29400 49.46741 36876 ft 572 kts 97°
2026-04-20 11:31 23.28152 49.55307 36852 ft 572 kts 97°
2026-04-20 11:31 23.26901 49.63868 36851 ft 572 kts 97°
2026-04-20 11:32 23.25656 49.72369 36851 ft 572 kts 97°
2026-04-20 11:32 23.24394 49.80941 36852 ft 572 kts 97°
2026-04-20 11:33 23.23130 49.89495 36851 ft 572 kts 97°
2026-04-20 11:33 23.21869 49.97985 36854 ft 572 kts 97°
2026-04-20 11:34 23.20596 50.06522 36851 ft 572 kts 97°
2026-04-20 11:34 23.19319 50.15059 36847 ft 571 kts 97°
2026-04-20 11:35 23.18041 50.23582 36851 ft 570 kts 97°
2026-04-20 11:35 23.16759 50.32087 36852 ft 570 kts 97°
2026-04-20 11:36 23.15472 50.40587 36847 ft 570 kts 97°
2026-04-20 11:36 23.14188 50.49035 36849 ft 569 kts 97°
2026-04-20 11:37 23.12895 50.57534 36853 ft 569 kts 97°
2026-04-20 11:37 23.10944 50.70259 36851 ft 568 kts 97°
2026-04-20 11:38 23.09646 50.78689 36850 ft 567 kts 97°
2026-04-20 11:38 23.08349 50.87091 36848 ft 567 kts 97°
2026-04-20 11:39 23.07040 50.95544 36852 ft 566 kts 97°
2026-04-20 11:39 23.05730 51.03974 36852 ft 565 kts 97°
2026-04-20 11:40 23.04414 51.12394 36848 ft 565 kts 97°
2026-04-20 11:40 23.03098 51.20805 36851 ft 564 kts 97°
2026-04-20 11:41 23.01787 51.29148 36853 ft 564 kts 97°
2026-04-20 11:41 23.00465 51.37551 36845 ft 564 kts 97°
2026-04-20 11:42 22.99137 51.45935 36842 ft 563 kts 97°
2026-04-20 11:42 22.97812 51.54274 36845 ft 563 kts 97°
2026-04-20 11:43 22.96474 51.62668 36850 ft 562 kts 97°
2026-04-20 11:43 22.95137 51.71027 36850 ft 562 kts 97°
2026-04-20 11:44 22.93795 51.79387 36851 ft 562 kts 97°
2026-04-20 11:44 22.92457 51.87691 36853 ft 562 kts 97°
2026-04-20 11:45 22.91107 51.96046 36853 ft 562 kts 97°
2026-04-20 11:45 22.89753 52.04409 36853 ft 561 kts 97°
2026-04-20 11:46 22.88406 52.12674 36850 ft 558 kts 97°
2026-04-20 11:46 22.87052 52.20953 36853 ft 557 kts 97°
2026-04-20 11:47 22.85694 52.29243 36852 ft 557 kts 97°
2026-04-20 11:47 22.84343 52.37470 36844 ft 557 kts 97°
2026-04-20 11:48 22.82977 52.45760 36838 ft 557 kts 97°
2026-04-20 11:48 22.82310 52.54072 36833 ft 552 kts 88°
2026-04-20 11:49 22.82065 52.62341 36836 ft 551 kts 86°
2026-04-20 11:49 22.81876 52.70645 36835 ft 551 kts 86°
2026-04-20 11:50 22.81672 52.78954 36812 ft 550 kts 87°
2026-04-20 11:50 22.81452 52.87241 36814 ft 550 kts 87°
2026-04-20 11:51 22.81227 52.95479 36812 ft 550 kts 87°
2026-04-20 11:51 22.80992 53.03763 36823 ft 550 kts 87°
2026-04-20 11:52 22.80755 53.12064 36816 ft 549 kts 87°
2026-04-20 11:52 22.80516 53.20336 36818 ft 548 kts 87°
2026-04-20 11:53 22.80274 53.28557 36819 ft 549 kts 87°
2026-04-20 11:53 22.80026 53.36836 36822 ft 549 kts 87°
2026-04-20 11:54 22.79771 53.45099 36824 ft 548 kts 87°
2026-04-20 11:54 22.80173 53.53264 36829 ft 535 kts 71°
2026-04-20 11:55 22.81209 53.57091 36835 ft 524 kts 60°
2026-04-20 11:55 22.82784 53.60540 36835 ft 512 kts 51°
2026-04-20 11:55 22.86792 53.66858 36815 ft 505 kts 45°
2026-04-20 11:56 22.91073 53.72884 36814 ft 504 kts 44°
2026-04-20 11:56 22.95346 53.78924 36812 ft 504 kts 45°
2026-04-20 11:57 22.99578 53.85020 36812 ft 506 kts 45°
2026-04-20 11:57 23.03766 53.91112 36814 ft 506 kts 45°
2026-04-20 11:58 23.07986 53.97265 36817 ft 506 kts 45°
2026-04-20 11:58 23.12201 54.03403 36813 ft 506 kts 46°
2026-04-20 11:59 23.16364 54.09478 36813 ft 503 kts 46°
2026-04-20 11:59 23.20547 54.15583 36814 ft 503 kts 46°
2026-04-20 12:00 23.24709 54.21672 36814 ft 502 kts 46°
2026-04-20 12:00 23.28882 54.27783 36812 ft 502 kts 46°
2026-04-20 12:01 23.33049 54.33894 36804 ft 503 kts 46°
2026-04-20 12:01 23.37215 54.40004 36804 ft 503 kts 46°
2026-04-20 12:02 23.41396 54.46142 36803 ft 503 kts 46°
2026-04-20 12:02 23.45534 54.52224 36803 ft 503 kts 46°
2026-04-20 12:03 23.49690 54.58351 36805 ft 503 kts 46°
2026-04-20 12:03 23.53848 54.64482 36804 ft 502 kts 46°
2026-04-20 12:04 23.58010 54.70619 36805 ft 502 kts 46°
2026-04-20 12:04 23.61455 54.75716 36571 ft 501 kts 47°
2026-04-20 12:05 23.63516 54.78768 36327 ft 500 kts 47°
2026-04-20 12:05 23.65587 54.81831 36067 ft 502 kts 47°
2026-04-20 12:05 23.67664 54.84904 35814 ft 504 kts 48°
2026-04-20 12:05 23.69732 54.87967 35563 ft 507 kts 48°
2026-04-20 12:06 23.71831 54.91073 35311 ft 509 kts 49°
2026-04-20 12:06 23.73931 54.94188 35054 ft 510 kts 49°
2026-04-20 12:06 23.76033 54.97309 34791 ft 512 kts 49°
2026-04-20 12:06 23.78148 55.00452 34551 ft 513 kts 49°
2026-04-20 12:07 23.80263 55.03597 34296 ft 513 kts 50°
2026-04-20 12:07 23.82371 55.06735 34051 ft 513 kts 50°
2026-04-20 12:07 23.84487 55.09886 33796 ft 512 kts 50°
2026-04-20 12:07 23.86596 55.13028 33549 ft 513 kts 51°
2026-04-20 12:08 23.88704 55.16170 33292 ft 513 kts 51°
2026-04-20 12:08 23.90819 55.19323 33035 ft 514 kts 51°
2026-04-20 12:08 23.92942 55.22487 32788 ft 515 kts 51°
2026-04-20 12:08 23.95058 55.25647 32536 ft 516 kts 52°
2026-04-20 12:09 23.97155 55.28779 32287 ft 517 kts 52°
2026-04-20 12:09 23.99288 55.31970 32034 ft 518 kts 52°
2026-04-20 12:09 24.01428 55.35172 31781 ft 519 kts 52°
2026-04-20 12:09 24.03559 55.38361 31532 ft 520 kts 53°
2026-04-20 12:10 24.05675 55.41530 31276 ft 521 kts 53°
2026-04-20 12:10 24.07816 55.44737 31028 ft 523 kts 53°
2026-04-20 12:10 24.09965 55.47960 30774 ft 523 kts 53°
2026-04-20 12:10 24.12119 55.51195 30517 ft 524 kts 53°
2026-04-20 12:11 24.14262 55.54415 30271 ft 526 kts 53°
2026-04-20 12:11 24.16419 55.57656 29963 ft 526 kts 53°
2026-04-20 12:11 24.18571 55.60891 29023 ft 526 kts 53°
2026-04-20 12:11 24.20726 55.64132 28263 ft 523 kts 53°
2026-04-20 12:12 24.22854 55.67334 27555 ft 519 kts 53°
2026-04-20 12:12 24.24980 55.70537 26845 ft 515 kts 53°
2026-04-20 12:12 24.27074 55.73696 26134 ft 510 kts 53°
2026-04-20 12:12 24.29147 55.76826 25436 ft 506 kts 53°
2026-04-20 12:13 24.31208 55.79938 24732 ft 501 kts 53°
2026-04-20 12:13 24.33220 55.82980 24046 ft 496 kts 53°
2026-04-20 12:13 24.35239 55.86031 23356 ft 491 kts 53°
2026-04-20 12:13 24.37348 55.88946 22704 ft 483 kts 45°
2026-04-20 12:14 24.39671 55.91529 22081 ft 461 kts 43°
2026-04-20 12:14 24.41995 55.93948 21470 ft 456 kts 41°
2026-04-20 12:14 24.44326 55.96289 20881 ft 452 kts 40°
2026-04-20 12:14 24.46623 55.98561 20298 ft 448 kts 40°
2026-04-20 12:15 24.48970 56.00716 19827 ft 424 kts 34°
2026-04-20 12:15 24.51444 56.02354 18852 ft 408 kts 23°
2026-04-20 12:15 24.54126 56.03363 17251 ft 406 kts
2026-04-20 12:15 24.56943 56.03578 15502 ft 408 kts 354°
2026-04-20 12:16 24.59673 56.02932 13869 ft 406 kts 338°
2026-04-20 12:16 24.62118 56.01447 12314 ft 401 kts 325°
2026-04-20 12:16 24.64361 55.99679 11088 ft 389 kts 323°
2026-04-20 12:16 24.66484 55.97986 10608 ft 360 kts 324°
2026-04-20 12:17 24.68421 55.96457 10501 ft 325 kts 324°
2026-04-20 12:17 24.70172 55.95077 10399 ft 295 kts 324°
2026-04-20 12:17 24.71795 55.93799 10321 ft 292 kts 324°
2026-04-20 12:17 24.73460 55.92489 10190 ft 292 kts 324°
2026-04-20 12:18 24.75114 55.91188 10080 ft 292 kts 324°
2026-04-20 12:18 24.76767 55.89890 9938 ft 292 kts 324°
2026-04-20 12:18 24.78425 55.88591 9759 ft 291 kts 324°
2026-04-20 12:18 24.80049 55.87316 9502 ft 290 kts 324°
2026-04-20 12:19 24.81692 55.86027 9253 ft 290 kts 324°
2026-04-20 12:19 24.83332 55.84738 9019 ft 289 kts 324°
2026-04-20 12:19 24.84965 55.83455 8768 ft 288 kts 324°
2026-04-20 12:19 24.86602 55.82167 8507 ft 287 kts 324°
2026-04-20 12:20 24.88227 55.80889 8260 ft 286 kts 324°
2026-04-20 12:20 24.89825 55.79631 8096 ft 279 kts 324°
2026-04-20 12:20 24.91425 55.78370 7875 ft 285 kts 324°
2026-04-20 12:20 24.93032 55.77104 7564 ft 284 kts 324°
2026-04-20 12:21 24.94636 55.75840 7258 ft 282 kts 324°
2026-04-20 12:21 24.96212 55.74600 6956 ft 281 kts 324°
2026-04-20 12:21 24.97808 55.73343 6633 ft 281 kts 324°
2026-04-20 12:21 24.99395 55.72092 6326 ft 280 kts 324°
2026-04-20 12:22 25.00976 55.70847 6013 ft 279 kts 324°
2026-04-20 12:22 25.02555 55.69600 5698 ft 277 kts 324°
2026-04-20 12:22 25.04122 55.68362 5378 ft 277 kts 324°
2026-04-20 12:22 25.05675 55.67135 5072 ft 276 kts 324°
2026-04-20 12:23 25.07242 55.65898 4775 ft 276 kts 324°
2026-04-20 12:23 25.08803 55.64664 4449 ft 275 kts 324°
2026-04-20 12:23 25.10235 55.63273 4146 ft 274 kts 312°
2026-04-20 12:23 25.11378 55.61605 4022 ft 274 kts 302°
2026-04-20 12:24 25.12352 55.59804 4020 ft 266 kts 300°
2026-04-20 12:24 25.13267 55.58109 3935 ft 251 kts 301°
2026-04-20 12:24 25.14183 55.56482 3656 ft 246 kts 302°
2026-04-20 12:24 25.15071 55.54899 3305 ft 237 kts 301°
2026-04-20 12:25 25.15892 55.53410 3008 ft 221 kts 301°
2026-04-20 12:25 25.16672 55.52000 2687 ft 208 kts 301°
2026-04-20 12:25 25.17395 55.50696 2405 ft 191 kts 301°
2026-04-20 12:25 25.18064 55.49487 2144 ft 177 kts 302°
2026-04-20 12:26 25.18678 55.48379 1920 ft 166 kts 302°
2026-04-20 12:26 25.19257 55.47333 1707 ft 153 kts 302°
2026-04-20 12:26 25.19795 55.46363 1507 ft 145 kts 301°
2026-04-20 12:26 25.20323 55.45407 1322 ft 146 kts 301°
2026-04-20 12:27 25.20856 55.44447 1117 ft 147 kts 302°
2026-04-20 12:27 25.21384 55.43491 932 ft 145 kts 302°
2026-04-20 12:27 25.21908 55.42545 734 ft 144 kts 302°
2026-04-20 12:27 25.22428 55.41604 549 ft 143 kts 302°
2026-04-20 12:28 25.22943 55.40675 365 ft 143 kts 302°
2026-04-20 12:28 25.23465 55.39730 166 ft 142 kts 302°
2026-04-20 12:28 25.23959 55.38826 89 ft 133 kts 301°
2026-04-20 12:28 25.24424 55.37975 33 ft 123 kts 302°
2026-04-20 12:29 25.24831 55.37253 28 ft 86 kts 302°
2026-04-20 12:29 25.24967 55.36999 28 ft 18 kts 291°
2026-04-20 12:29 25.25004 55.36872 28 ft 16 kts 284°
2026-04-20 12:29 25.25021 55.36756 28 ft 14 kts 271°
2026-04-20 12:30 25.25024 55.36676 28 ft 5 kts 272°
2026-04-20 12:30 25.25025 55.36622 28 ft 9 kts 272°
2026-04-20 12:30 25.25028 55.36541 28 ft 12 kts 272°
2026-04-20 12:30 25.25042 55.36440 28 ft 15 kts 284°
2026-04-20 12:31 25.25077 55.36333 28 ft 15 kts 296°
2026-04-20 12:31 25.25110 55.36239 28 ft 10 kts 268°
2026-04-20 12:31 25.25062 55.36201 28 ft 6 kts 178°
2026-04-20 12:31 25.25055 55.36199 28 ft 2 kts 196°
2026-04-20 12:32 25.25018 55.36184 28 ft 9 kts 202°
2026-04-20 12:32 25.24959 55.36146 28 ft 3 kts 212°
2026-04-20 12:32 25.24958 55.36146 28 ft 0 kts 212°